SCP
0 0 0 0 0 0 0 0 0 0 0 0 0 0 0 0 0 0 0 0 0 0 0 0 0 0 0 0 0 0 0 0 0 0 0 0 0 0 0 0 0 0 0
0 0 0 0 0 0 0 0 0 0 0 0 0 0 0 0 0 0 0 0 0 0 0 0 0 0 0 0 0 0 0 0 0 0 0 0 0 0 0 0 0 0 0
0 0 0 0 0 0 0 0 0 0 0 0 0 0 0 0 0 0 0 0 0 0 0 0 0 0 0 0 0 0 0 0 0 0 0 0 0 0 0 0 0 0 0
0 0 0 0 0 0 0 0 0 0 0 0 0 0 0 0 0 0 0 0 0 0 0 0 0 0 0 0 0 0 0 0 0 0 0 0 0 0 0 0 0 0 0
0 0 0 0 0 0 0 0 0 0 0 0 0 0 0 0 0 0 0 0 0 0 0 0 0 0 0 0 0 0 0 0 0 0 0 0 0 0 0 0 0 0 0
0 0 0 0 0 0 0 0 0 0 0 0 0 0 0 0 0 0 0 0 0 0 0 0 0 0 0 0 0 0 0 0 0 0 0 0 0 0 0 0 0 0 0
0 0 0 0 0 0 0 0 0 0 0 0 0 0 0 0 0 0 0 0 0 0 0 0 0 0 0 0 0 0 0 0 0 0 0 0 0 0 0 0 0 0 0
0 0 0 0 0 0 0 0 0 0 0 0 0 0 0 0 0 0 0 0 0 0 0 0 0 0 0 0 0 0 0 0 0 0 0 0 0 0 0 0 0 0 0
0 0 0 0 0 0 0 0 0 0 0 0 0 0 0 0 0 0 0 0 0 0 0 0 0 0 0 0 0 0 0 0 0 0 0 0 0 0 0 0 0 0 0
0 0 0 0 0 0 0 0 0 0 0 0 0 0 0 0 0 0 0 0 0 0 0 0 0 0 0 0 0 0 0 0 0 0 0 0 0 0 0 0 0 0 0
0 0 0 0 0 0 0 0 0 0 0 0 0 0 0 0 0 0 0 0 0 0 0 0 0 0 0 0 0 0 0 0 0 0 0 0 0 0 0 0 0 0 0
0 0 0 0 0 0 0 0 0 0 0 0 0 0 0 0 0 0 0 0 0 0 0 0 -0 -0 -0 0 0 0 0 0 0 0 0 0 0 0 0 0 0 0 0
0 0 0 0 0 0 0 0 0 0 0 0 0 0 0 0 0 0 0 0 0 0 0 -0 -0 -0 -0 0 0 0 0 0 0 0 0 0 0 0 0 0 0 0 0
0 0 0 0 0 0 0 0 0 0 0 0 0 0 0 0 0 0 0 0 0 0 0 0 -0 -0 -0 0 0 0 0 0 0 0 0 0 0 0 0 0 0 0 0
0 0 0 0 0 0 0 0 0 0 0 0 0 0 0 0 0 0 0 0 0 0 0 0 0 0 -0 0 0 0 0 0 0 0 0 0 0 0 0 0 0 0 0
0 0 0 0 0 0 0 0 0 0 0 0 0 0 0 0 0 0 0 0 0 0 0 0 0 0 0 0 0 0 0 0 0 0 0 0 0 0 0 0 0 0 0
0 0 0 0 0 0 0 0 0 0 0 0 0 0 0 0 0 0 0 0 0 0 0 0 0 0 0 0 0 0 0 0 0 0 0 0 0 0 0 0 0 0 0
0 0 0 0 0 0 0 0 0 0 0 0 0 0 0 0 0 0 0 0 0 0 0 0 0 0 0 0 -0 -0 0 0 0 0 0 0 0 0 0 0 0 0 0
0 0 0 0 0 0 0 0 0 0 0 0 0 0 0 0 0 0 0 0 0 0 0 0 0 0 0 0 -0 -0 0 0 0 0 0 0 0 0 0 0 0 0 0
0 0 0 0 0 0 0 0 0 0 0 0 0 0 0 0 0 0 0 0 0 0 0 0 0 0 0 0 0 0 0 0 0 0 0 0 0 0 0 0 0 0 0
0 0 0 0 0 0 0 0 0 0 0 0 0 0 0 0 0 0 0 0 0 0 0 0 0 0 0 0 0 0 0 0 0 0 0 0 0 0 0 0 0 0 0
0 0 0 0 0 0 0 0 0 0 0 0 0 0 0 0 0 0 0 0 0 0 0 0 0 0 0 0 0 0 0 0 0 0 0 0 0 0 0 0 0 0 0
0 0 0 0 0 0 0 0 0 0 0 0 0 0 0 0 0 0 0 0 0 0 0 0 0 0 0 0 0 0 0 0 0 0 0 0 0 0 0 0 0 0 0
0 0 0 0 0 0 0 0 0 0 0 0 0 0 0 0 0 0 0 0 0 0 0 0 0 0 0 0 0 0 0 0 0 0 0 0 0 0 0 0 0 0 0
0 0 0 0 0 0 0 0 0 0 0 0 0 0 0 0 0 0 0 0 0 0 0 0 0 0 0 0 0 0 0 0 0 0 0 0 0 0 0 0 0 0 0
0 0 0 0 0 0 0 0 0 0 0 0 0 0 0 0 0 0 0 0 0 0 0 0 0 0 0 0 0 0 0 0 0 0 0 0 0 0 0 0 0 0 0
Wind_Speed
5 5 5 5 5 4 4 4 4 4 4 4 4 4 4 3 3 3 1 2 5 9 11 11 11 12 11 12 11 9 7 5 4 3 4 5 6 7 8 8 9 9 9
6 6 7 6 5 4 4 4 4 4 3 3 3 3 3 4 3 4 3 3 4 7 11 12 13 13 13 13 13 12 10 8 5 3 3 3 4 5 6 7 8 8 8
8 8 7 7 5 5 5 4 4 4 4 4 4 3 2 3 4 5 5 4 5 7 11 13 15 14 14 14 14 14 13 13 9 6 5 5 4 5 6 6 7 7 7
9 8 7 6 5 5 5 5 4 4 4 4 4 3 3 2 4 5 5 6 5 6 8 15 16 16 16 16 15 15 15 14 13 9 8 7 7 7 6 7 7 8 8
9 8 7 6 6 5 5 4 5 4 5 5 4 3 2 3 4 5 6 7 6 6 6 11 16 16 18 18 18 17 16 16 16 14 12 10 9 10 9 8 8 9 9
9 8 7 8 7 6 6 5 5 5 5 5 4 3 2 4 4 5 5 5 6 7 7 7 7 10 18 20 19 19 18 18 18 17 16 15 13 12 12 11 11 11 11
9 8 7 7 7 7 8 8 5 6 7 6 4 4 3 4 6 4 4 5 7 7 7 7 6 6 7 16 19 20 20 20 20 19 19 19 18 16 15 14 13 13 13
9 9 8 7 7 7 9 9 7 5 6 8 5 3 4 4 6 3 4 5 6 5 6 7 7 8 7 5 12 19 19 20 20 20 20 20 20 19 19 17 16 16 15
8 9 9 8 7 7 7 8 7 8 5 6 7 5 4 3 4 4 4 5 7 6 5 6 7 8 8 6 6 12 17 19 20 21 21 21 21 21 20 20 20 19 18
8 8 8 8 7 6 7 7 7 6 6 5 4 4 3 1 2 5 5 5 7 7 6 7 7 7 6 5 6 12 15 18 19 21 22 22 22 22 21 21 21 22 21
7 8 7 7 7 6 6 7 7 7 5 4 4 3 3 3 3 2 5 6 6 5 6 7 6 6 5 5 5 7 14 18 20 22 23 23 23 23 23 22 22 22 23
5 7 7 6 6 5 6 6 6 6 5 5 4 3 3 3 3 3 4 7 7 5 8 6 6 5 5 5 7 11 14 19 22 24 25 24 24 24 24 24 23 23 23
4 5 6 5 5 5 5 5 5 5 5 5 4 3 3 2 2 3 4 5 6 5 5 4 5 6 6 5 7 16 15 21 24 26 26 26 27 26 26 25 25 24 23
5 5 5 5 5 5 5 4 4 4 4 4 4 3 2 2 2 3 3 4 7 5 4 6 5 5 6 8 14 23 12 23 26 27 28 28 28 28 27 26 26 25 24
5 6 5 5 5 4 4 4 3 3 3 3 3 3 2 2 2 2 3 3 4 7 9 5 4 6 8 8 16 12 11 22 28 28 28 28 28 28 28 27 27 26 26
5 6 5 5 4 4 3 3 2 3 3 3 2 3 3 2 3 3 3 3 3 5 9 7 6 8 10 12 19 14 13 27 26 27 27 28 28 29 29 28 28 27 27
6 6 5 4 4 3 2 2 2 2 2 2 2 2 3 3 2 3 3 3 3 4 10 13 8 7 10 12 13 12 12 11 12 24 27 28 28 28 28 28 28 28 27
6 6 5 4 4 3 2 1 1 0 1 2 2 2 3 3 3 3 3 3 3 4 7 15 14 9 9 10 12 14 13 13 10 21 26 27 27 27 28 28 28 27 27
6 6 5 5 4 3 2 2 1 2 2 3 3 3 4 4 4 3 4 4 4 6 5 10 15 11 9 9 12 13 12 9 12 16 22 24 26 28 28 27 27 27 26
7 6 5 5 4 4 3 3 3 3 3 3 3 4 4 4 4 4 5 5 5 6 6 9 12 12 10 9 9 11 13 9 10 12 16 19 22 23 25 28 28 28 28
7 6 6 5 5 4 4 4 3 3 4 4 4 5 5 7 9 8 7 5 5 5 6 9 12 12 11 11 11 11 14 13 9 9 10 8 10 10 13 20 24 27 29
6 6 6 6 6 5 9 10 7 4 5 5 6 5 5 6 9 13 14 14 13 9 7 9 12 14 15 14 13 13 14 16 15 5 9 11 10 11 9 9 21 28 28
7 7 7 7 7 9 13 12 12 6 5 6 6 6 6 5 5 7 11 15 14 17 18 15 16 16 17 16 17 18 16 17 17 13 14 16 9 11 9 13 25 28 29
8 8 9 9 8 10 14 14 13 7 6 7 7 7 7 6 7 9 9 9 10 11 15 13 14 16 16 16 17 18 19 18 16 12 13 15 11 11 11 8 20 27 28
9 9 7 8 9 10 14 14 13 5 6 8 8 7 7 7 12 15 10 9 11 12 16 20 23 23 28 28 24 14 12 13 14 11 9 12 13 13 10 8 12 22 23
9 8 8 8 9 8 13 15 15 5 6 7 6 7 9 11 13 14 8 7 10 12 11 12 15 18 17 18 22 14 11 11 12 10 7 8 11 11 10 5 6 7 11
Wind_Direction
72 73 71 66 59 53 53 47 44 45 47 43 35 30 16 18 21 18 53 57 31 18 11 7 4 359 355 353 350 341 335 323 317 332 346 357 2 3 2 2 2 1 359
69 72 67 59 53 48 54 52 47 40 37 29 16 17 3 1 3 2 9 20 27 27 18 12 7 0 355 349 345 343 335 329 314 286 292 313 334 343 346 347 347 349 349
67 71 68 59 47 42 49 48 38 36 28 14 356 354 354 358 4 7 12 19 21 26 19 17 9 3 357 351 346 341 335 334 321 297 281 273 280 302 315 322 324 326 329
67 71 70 63 53 48 47 47 34 30 22 8 348 342 345 3 21 24 24 30 27 21 13 16 11 5 1 356 350 343 340 333 332 314 295 274 265 270 283 294 302 305 306
66 71 67 60 54 51 45 47 45 36 15 354 331 321 347 38 39 36 41 41 33 25 18 14 11 3 359 355 352 348 343 339 336 333 324 300 282 269 269 274 282 287 289
59 66 66 57 52 51 41 36 47 42 17 344 326 334 39 73 57 50 48 45 37 27 18 16 9 359 356 352 351 348 345 343 341 339 334 328 310 293 277 270 271 274 276
57 61 64 58 54 52 43 33 35 43 23 359 7 3 34 71 60 61 56 47 35 22 14 12 3 356 346 349 348 347 349 349 345 342 338 333 328 316 302 285 272 270 269
56 65 62 60 56 56 47 36 33 40 38 26 21 17 6 2 16 24 53 51 33 15 8 3 356 350 340 339 342 349 351 350 348 345 342 337 331 325 317 305 291 276 269
60 64 63 64 58 57 54 42 34 45 44 27 34 46 50 353 323 335 18 39 22 6 353 347 344 336 333 338 338 346 351 349 347 345 341 338 333 327 321 314 306 293 282
60 62 64 64 62 57 55 49 41 40 51 36 18 26 53 14 1 323 324 2 3 348 339 336 326 317 320 328 331 339 343 342 341 339 337 334 330 327 322 316 309 302 293
61 63 64 66 64 59 57 53 46 43 45 50 38 14 5 2 36 321 306 326 330 325 325 316 305 300 301 308 310 318 331 332 333 332 330 328 325 322 319 315 311 305 299
72 68 69 67 67 63 57 54 53 50 43 43 40 36 28 7 356 340 309 315 314 311 308 300 304 309 306 306 308 318 324 324 324 324 322 320 318 317 315 312 309 306 301
94 82 79 74 70 68 64 59 59 52 43 40 38 28 14 1 349 336 311 308 308 299 296 307 321 322 325 334 328 325 323 322 319 317 315 314 313 311 310 308 305 303 300
115 107 96 88 79 69 64 61 63 55 43 34 30 24 0 345 353 345 326 321 315 303 301 301 304 316 345 338 325 327 324 321 317 313 311 310 308 307 305 304 303 301 298
123 116 108 101 93 82 69 69 67 55 36 31 21 5 351 336 342 333 320 311 301 306 307 296 317 340 333 323 321 321 321 318 316 313 310 308 306 305 304 303 301 300 298
128 126 119 114 106 94 77 71 71 50 33 15 3 356 346 333 329 322 315 308 295 285 291 291 306 321 328 324 320 321 316 315 313 311 309 307 305 303 302 301 300 298 296
135 135 133 127 121 112 94 82 74 50 15 339 333 343 324 320 322 320 312 302 297 298 292 295 302 317 323 320 315 310 310 307 308 312 311 308 306 304 302 301 300 299 297
143 144 143 143 145 139 131 133 153 229 281 293 304 310 302 310 308 299 300 304 299 290 289 298 305 315 315 313 310 312 312 311 311 312 314 315 314 313 311 307 304 301 299
150 152 158 165 166 165 171 184 199 245 259 267 274 279 283 292 289 289 296 292 288 293 289 295 300 309 310 311 310 306 305 307 313 314 317 315 314 313 313 314 313 312 310
161 168 174 174 175 179 191 203 213 237 253 260 260 260 264 268 275 286 291 282 286 289 292 294 297 304 307 305 303 310 309 305 305 309 307 308 308 314 317 315 314 313 310
170 171 172 179 185 192 203 201 214 235 247 258 258 255 257 266 276 281 281 275 281 282 287 292 296 300 303 309 309 308 304 304 296 296 295 297 304 301 303 304 307 305 305
171 173 184 189 200 209 217 219 221 231 247 256 263 261 260 262 274 285 291 293 291 290 291 290 293 294 299 302 302 300 301 301 301 291 291 294 292 291 291 288 296 301 302
180 189 196 198 210 220 224 226 231 234 242 251 259 263 267 266 269 278 286 291 293 291 290 289 290 291 295 297 297 295 291 290 292 299 298 294 289 288 287 293 299 300 300
190 198 204 205 211 223 228 230 234 236 241 248 249 251 260 266 269 279 279 280 283 287 288 288 285 288 292 294 292 293 295 293 290 289 287 290 293 290 291 285 295 295 297
196 202 202 202 211 225 228 231 233 224 241 251 251 249 252 257 270 281 286 286 291 293 298 299 300 301 302 304 303 301 297 295 296 295 289 287 294 295 291 286 287 292 299
199 198 208 205 211 219 228 234 233 219 236 247 249 251 252 259 267 278 282 285 294 300 306 309 309 307 305 303 303 298 298 297 299 300 290 290 300 308 302 273 278 298 300